Showing default

HUYGENS, 55093

Orbit data source: Space-Track

HUYGENS, 55093 is a Norwegian payload satellite in SSO that was launched on Tue, 03 Jan 2023 UTC via an FALCON 9 launch vehicle from the Air Force Eastern Test Range (AFETR). Payload-class satellites include a variety of spacecraft equipped with specific instruments for various scientific and technological missions. These include communications satellites like Starlink; space stations such as the ISS; scientific satellites like the Hubble; Earth observation satellites from companies like Planet Labs, Umbra, and HawkEye 360; GPS; miniature CubeSats for education and research; and military/defense satellites.

Loading next visibility...
Identifier
55093, 2023-001CN
Orbit
SSO
Country
Flag of NONO / NOR
Related business
Manufacturer
NanoAvionics
Mission
Operational Civil Sigint
Bus & Motor
CUBESAT 6U, Unknown motor
Mass
10 kg wet, ~10 kg dry
Launch date (UTC)
2023-01-03 (4 years ago)
Launch vehicle
FALCON 9
Launch site
Air Force Eastern Test Range (AFETR)
Object type
Payload
Rocket body
Debris
Shape & HBR
Box + 2 Pan, 0.2 m
Radar Cross Section
0.080 m², Medium (>0.1 m² and < 1m²)

Expand to show TLE details & history
Last TLE update: 9 hours ago

TLE from 9 hours ago
0 HUYGENS
1 55093U 23001CN  26208.61670400  .00008799  00000-0  21724-3 0  9992
2 55093  97.3234 275.8797 0007382 300.9562  59.0959 15.40722111198595
Epoch: 2026-07-27T14:48Z
TLE epoch observation values (Epoch: 2026-07-27T14:48:03.225Z)
Latitude
Longitude
108.56855°
Altitude
444.513 km
Speed
7.647 km/s
True Right ascension
18h 23m 31s
True Declination
0° 00' 00"
Sunlit
Object was in full shadow at epoch
Visualization orbit readout
Latitude
Unknown
Longitude
Unknown
Altitude
Unknown
Speed
Unknown
Apparent Right ascension
Unknown
Apparent Declination
Unknown
Sunlit
N/A
Visualization observer readout
Local Sidereal Time
13:24:54
Azimuth
Unknown
Elevation
Unknown
Doppler factor
Unknown
Orbital elements
Apogee altitude
445.945 km
Perigee altitude
435.878 km
Semi-major axis
6,819.049 km
Eccentricity
0.00074
Inclination
97.3234°
RAAN
275.8797°
Arg. of periapsis
300.9562°
True anomaly
59.16852°
Mean anomaly
59.0959°
Eccentric anomaly
59.1322°
Mean motion
3.85441 °/min
Orbital period
93.4 mins
BSTAR
0.00021724
Loading maneuver chart data...
Computing Atmospheric mass density...
Loading historical data...
Loading historical data...
Loading historical data...
Loading historical data...
Loading historical data...
Loading historical data...
Loading historical data...

Documentation

Showing up to 5 results
|